[[{"header":{"parameterUnit":"m.s-1","parameterCategory":1,"la1":30.2991,"la2":30.254,"lo1":-89.0895,"lo2":-89.0444,"dy":0.0017,"dx":0.0017,"nx":28,"ny":28,"refTime":"2023-10-26T21:00:00:Z","depth":0,"parameterNumber":2,"parameterNumberName":"U-component_of_WINDS"},"data":[0,0,0,0,0,0,0,0,0,0,0,0,0,0,0,0,0,0,0,0,0,0,0,0,0,0,0,0,0,0,0,0,0,0,0,0,0,0,0,0,0,0,0,0,0,0,0,0,0,0,0,0,0,0,0,0,0,0,-4.9798,-4.9798,0,-4.981,-4.981,-4.981,-4.9699,-4.9696,-4.9693,-4.969,-4.9704,-4.9707,-4.971,0,0,0,0,0,0,0,0,0,0,0,0,0,-4.968,-4.9683,-4.9798,-4.9798,-4.9798,-4.981,-4.981,-4.981,-4.9699,-4.9696,-4.9692,-4.9688,-4.9703,-4.9707,-4.9711,0,0,0,0,0,0,0,0,0,0,0,0,0,-4.9716,-4.9684,-4.9798,-4.9744,-4.9739,-4.981,-4.981,-4.981,-4.97,-4.9696,-4.9691,-4.9687,-4.9702,-4.9706,-4.9711,-4.9834,0,0,-4.9726,-4.9728,0,0,0,0,0,0,0,0,-4.9714,-4.972,-4.9752,-4.9748,-4.9743,-4.9748,-4.9773,-4.9818,-4.9701,-4.9715,-4.969,-4.9684,-4.9722,-4.9725,-4.9738,-4.9834,-4.9835,-4.9726,-4.9729,-4.9731,-4.9733,0,0,0,0,0,0,0,-4.9712,-4.9719,-4.9802,-4.9753,-4.9747,-4.972,-4.972,-4.9781,-4.9745,-4.9714,-4.9706,-4.9709,-4.9719,-4.9733,-4.9737,-4.9835,-4.9726,-4.9731,-4.9734,-4.9735,-5.0034,-5.0038,0,0,0,0,0,0,-4.9716,-4.9718,-4.9802,-4.9803,-4.9717,-4.9726,-4.9726,-4.9751,-4.9744,-4.9738,-4.9712,-4.9703,-4.9727,-4.9732,-4.9737,-4.9881,-4.9731,-4.9736,-4.9739,-5.0029,-5.0035,-5.004,0,0,0,0,0,0,-4.9714,-4.9725,-4.9802,-4.9758,-4.9766,-4.9733,-4.9762,-4.9754,-4.9768,-4.9743,-4.9736,-4.9734,-4.9724,-4.973,-4.9811,-4.988,-4.9738,-4.9743,-5.0023,-5.003,-5.0037,-5.0168,0,0,0,0,0,0,-4.9711,-4.9725,-4.9771,-4.976,-4.9769,-4.9875,-4.9766,-4.9757,-4.9776,-4.9765,-4.9761,-4.9756,-4.9721,-4.9804,-4.9815,-4.9884,-4.9746,-5.0016,-5.0026,-5.0035,-5.0158,-5.0179,-5.0198,0,0,0,0,0,-4.9707,-4.9807,-4.9773,-4.9784,-4.9825,-4.9879,-4.9884,-4.9841,-4.9782,-4.9828,-4.9812,-4.9756,-4.987,-4.9813,-4.9825,-4.9896,-5.0012,-5.0023,-5.0034,-5.0149,-5.0175,-5.0197,0,0,0,0,0,0,-4.9827,-4.9805,-4.9767,-4.9866,-4.9875,-4.986,-4.9916,-4.987,-4.9896,-4.9884,-4.983,-4.983,-4.992,-4.9915,-4.9852,-5.0014,-4.9931,-4.9945,-5.0014,-5.0039,-5.0058,-5.0058,-4.975,0,0,0,0,0,-4.9865,-4.991,-4.9888,-4.9978,-4.9984,-4.995,-4.9972,-4.9938,-4.9945,-4.9948,-4.9938,-4.9948,-4.9986,-5.0012,-5.0045,-5.0157,-5.0155,-5.0211,-5.0232,-5.0248,-5.0261,-5.032,-5.0345,-5.0077,-5.0077,-5.0077,0,0,-4.9944,-4.9937,-4.9969,-5.0002,-5.0004,-5.0053,-4.9954,-5.0009,-5.0044,-4.9957,-5.0032,-5.0025,-5.0032,-5.0129,-5.017,-5.0128,-5.0335,-5.0262,-5.0276,-5.028,-5.0334,-5.036,-5.0382,-5.0085,-5.0083,-5.0082,0,0,-5.0112,-5.0111,-5.0186,-5.0191,-5.0196,-5.0173,-5.0192,-5.0183,-5.0175,-5.0249,-5.0185,-5.0227,-5.0293,-5.0301,-5.0314,-5.0486,-5.0435,-5.0499,-5.0604,-5.0662,-5.0683,-5.0702,-5.0763,-5.0786,-5.0512,-5.0512,-5.0512,0,-5.0209,-5.0278,-5.023,-5.029,-5.0307,-5.0229,-5.0305,-5.0312,-5.0329,-5.0343,-5.0295,-5.0377,-5.0376,-5.0474,-5.0516,-5.0529,-5.0548,-5.0499,-5.0684,-5.0702,-5.0718,-5.0777,-5.08,-5.052,-5.0519,-5.0518,-5.0517,0,-5.0398,-5.0447,-5.0507,-5.0525,-5.0548,-5.0616,-5.0578,-5.0608,-5.0573,-5.0555,-5.0632,-5.0629,-5.066,-5.0681,-5.0647,-5.0774,-5.0748,-5.0693,-5.0608,-5.0753,-5.0806,-5.0828,-5.0531,-5.0528,-5.0526,-5.0524,0,0,-5.0641,-5.0632,-5.0655,-5.0662,-5.0663,-5.07,-5.0765,-5.0795,-5.0822,-5.0836,-5.0889,-5.0948,-5.0897,-5.0912,-5.0878,-5.0929,-5.1066,-5.0868,-5.0867,-5.0905,-5.1207,-5.1248,-5.1274,-5.1033,-5.1037,-5.104,-5.1206,0,-5.0805,-5.0913,-5.0873,-5.0985,-5.103,-5.0958,-5.1014,-5.1021,-5.1006,-5.1043,-5.1027,-5.1069,-5.0999,-5.1007,-5.1055,-5.104,-5.1126,-5.1027,-5.1082,-5.1085,-5.1082,-5.1302,-5.1346,-5.1503,-5.1227,-5.123,-5.1233,0,-5.101,-5.1033,-5.115,-5.1143,-5.116,-5.1212,-5.1237,-5.1272,-5.1279,-5.1265,-5.1282,-5.1238,-5.1301,-5.1216,-5.1303,-5.1237,-5.1257,-5.1253,-5.1258,-5.1261,-5.1167,-5.1312,-5.1552,-5.1575,-5.1266,-5.1263,-5.1261,0,-5.1176,-5.1236,-5.1313,-5.1322,-5.1316,-5.1354,-5.1353,-5.1355,-5.1377,-5.1399,-5.1412,-5.1442,-5.1459,-5.1483,-5.1448,-5.139,-5.154,-5.1453,-5.1531,-5.1532,-5.1565,-5.1564,-5.1812,-5.1579,-5.1579,-5.1578,-5.1578,0,-5.1363,-5.1438,-5.1388,-5.1435,-5.1517,-5.1469,-5.1551,-5.1543,-5.1546,-5.1591,-5.1531,-5.1574,-5.1525,-5.1565,-5.1538,-5.1615,-5.1622,-5.1613,-5.1605,-5.1618,-5.162,-5.1631,-5.1619,-5.1584,-5.1583,-5.1582,-5.1581,0,-5.1562,-5.1532,-5.1611,-5.16,-5.1598,-5.1659,-5.1649,-5.1693,-5.1674,-5.1732,-5.1743,-5.1714,-5.1758,-5.1725,-5.1768,-5.175,-5.1851,-5.1828,-5.1849,-5.1842,-5.1922,-5.1915,-5.2186,-5.2219,-5.1965,-5.1968,-5.197,0,-5.1683,-5.1739,-5.1733,-5.1759,-5.1762,-5.1805,-5.1826,-5.1782,-5.1807,-5.1819,-5.1862,-5.19,-5.1928,-5.2002,-5.1985,-5.2018,-5.1994,-5.2087,-5.1999,-5.2011,-5.1996,-5.1993,-5.1998,-5.2105,-5.2108,-5.211,-5.2112,0,-5.1902,-5.1884,-5.1917,-5.1946,-5.1973,-5.1993,-5.2008,-5.2033,-5.1988,-5.202,-5.2063,-5.2085,-5.2129,-5.2168,-5.2195,-5.2195,-5.2147,-5.214,-5.216,-5.2174,-5.2184,-5.218,-5.1897,-5.2134,-5.2132,-5.213,-5.2129,-5.2128,-5.2065,-5.2111,-5.2115,-5.2154,-5.2161,-5.2177,-5.2217,-5.2204,-5.2239,-5.2271,-5.2243,-5.2296,-5.2302,-5.2333,-5.2339,-5.238,-5.2342,-5.2371,-5.2378,-5.2386,-5.2397,-5.2178,-5.2385,-5.2384,-5.2384,-5.2383,-5.2382,0,-5.2281,-5.2279,-5.2316,-5.2339,-5.237,-5.2322,-5.2337,-5.2366,-5.2413,-5.2422,-5.2451,-5.2502,-5.2539,-5.2526,-5.2559,-5.2595,-5.2574,-5.2605,-5.2602,-5.2603,-5.2429,-5.2408,-5.2622,-5.2622,-5.2622,-5.2622,-5.2622,-5.2622,-5.2396,-5.2472,-5.2455,-5.2533,-5.2531,-5.2582,-5.2594,-5.2609,-5.2616,-5.2675,-5.2706,-5.2697,-5.2698,-5.2731,-5.2764,-5.2759,-5.2774,-5.2814,-5.2801,-5.2639,-5.2615,-5.2592,-5.2573,-5.2817,-5.2818,-5.2971,-5.2972,-5.2974]},{"header":{"parameterUnit":"m.s-1","parameterCategory":1,"la1":30.2991,"la2":30.254,"lo1":-89.0895,"lo2":-89.0444,"dy":0.0017,"dx":0.0017,"nx":28,"ny":28,"refTime":"2023-10-26T21:00:00:Z","depth":0,"parameterNumber":3,"parameterNumberName":"V-component_of_WINDS"},"data":[0,0,0,0,0,0,0,0,0,0,0,0,0,0,0,0,0,0,0,0,0,0,0,0,0,0,0,0,0,0,0,0,0,0,0,0,0,0,0,0,0,0,0,0,0,0,0,0,0,0,0,0,0,0,0,0,0,0,-0.006,-0.0059,0,0.0049,0.0051,0.0052,0.0119,0.0119,0.0119,0.012,0.0233,0.0236,0.0238,0,0,0,0,0,0,0,0,0,0,0,0,0,-0.0206,-0.0204,-0.006,-0.0059,-0.0057,0.0049,0.0051,0.0052,0.0119,0.0119,0.0119,0.012,0.0232,0.0235,0.0239,0,0,0,0,0,0,0,0,0,0,0,0,0,-0.0124,-0.0203,-0.006,-0.0011,-0.0006,0.0049,0.0051,0.0053,0.0118,0.0119,0.0119,0.012,0.0231,0.0235,0.0239,0.0254,0,0,0.0251,0.0253,0,0,0,0,0,0,0,0,-0.0129,-0.0119,-0.002,-0.0015,-0.0008,0.0071,0.0041,0.012,0.0118,0.0071,0.012,0.012,0.0179,0.0187,0.0207,0.026,0.0264,0.0252,0.0254,0.0256,0.0257,0,0,0,0,0,0,0,-0.0135,-0.0123,-0.0017,-0.0018,-0.0011,0.0007,0.0019,0.0056,0.0121,0.0075,0.0081,0.0092,0.0182,0.0203,0.021,0.0266,0.0252,0.0255,0.0258,0.0259,0.0343,0.0342,0,0,0,0,0,0,-0.0149,-0.0129,-0.002,-0.0013,-0.0069,0.0009,0.0023,0.0045,0.0121,0.0133,0.0092,0.0095,0.0195,0.0205,0.0214,0.024,0.0256,0.026,0.0262,0.0343,0.0343,0.0342,0,0,0,0,0,0,-0.0152,-0.014,-0.0024,-0.0069,-0.0053,0.0011,0.0036,0.0047,0.0067,0.0133,0.0145,0.0101,0.0196,0.0208,0.0245,0.0245,0.0262,0.0265,0.0343,0.0343,0.0342,0.029,0,0,0,0,0,0,-0.0157,-0.0141,-0.0137,-0.007,-0.0051,0.0003,0.0035,0.0049,0.0074,0.0079,0.0145,0.0156,0.0197,0.0238,0.0249,0.0251,0.0269,0.0343,0.0343,0.0342,0.0292,0.0287,0.0284,0,0,0,0,0,-0.0162,-0.0157,-0.0137,-0.0124,-0.0044,0.0002,0.0013,0.006,0.0074,0.008,0.0124,0.0154,0.0243,0.0242,0.0254,0.0257,0.0344,0.0343,0.0343,0.0293,0.0288,0.0284,0,0,0,0,0,0,-0.0226,-0.0147,-0.0124,-0.0097,-0.0054,0.0013,0.0023,0.0053,0.0093,0.0096,0.0154,0.0168,0.02,0.0232,0.0229,0.0278,0.0297,0.0299,0.0255,0.0251,0.0247,0.0239,0.0272,0,0,0,0,0,-0.0236,-0.0206,-0.0139,-0.0121,-0.0101,-0.0043,-0.0021,0.0012,0.0059,0.0077,0.0123,0.0168,0.0207,0.0231,0.027,0.0297,0.0314,0.0306,0.0302,0.0298,0.0299,0.032,0.0318,0.0341,0.0341,0.0341,0,0,-0.0259,-0.0212,-0.0197,-0.0133,-0.0096,-0.0064,-0.0028,0.0003,0.0028,0.0082,0.012,0.0156,0.021,0.0243,0.026,0.0271,0.0297,0.0298,0.0294,0.0297,0.032,0.0317,0.0315,0.034,0.034,0.034,0,0,-0.0282,-0.0245,-0.0225,-0.0187,-0.0131,-0.0092,-0.0087,-0.0022,0.0004,0.0042,0.0085,0.0117,0.0181,0.0219,0.0247,0.0243,0.0274,0.0255,0.0234,0.0254,0.0252,0.0251,0.0252,0.0251,0.0255,0.0255,0.0255,0,-0.0317,-0.0269,-0.0218,-0.0188,-0.016,-0.0107,-0.0085,-0.0051,0.0015,0.0034,0.0046,0.0131,0.0171,0.0216,0.0215,0.0235,0.0245,0.0247,0.0248,0.0247,0.0247,0.0249,0.0249,0.0253,0.0253,0.0253,0.0253,0,-0.0312,-0.0279,-0.0269,-0.0205,-0.0176,-0.015,-0.0093,-0.0068,-0.0037,0.0002,0.0044,0.0095,0.0146,0.016,0.019,0.021,0.0216,0.0237,0.0257,0.0242,0.0244,0.0245,0.0249,0.025,0.0251,0.0251,0,0,-0.0376,-0.0282,-0.0279,-0.0248,-0.018,-0.0152,-0.0122,-0.0071,-0.005,-0.0005,0.0024,0.008,0.0101,0.0133,0.0169,0.0186,0.0184,0.0207,0.0209,0.0202,0.0213,0.0197,0.0196,0.0205,0.0205,0.0206,0.0209,0,-0.0389,-0.0333,-0.0284,-0.0245,-0.0212,-0.016,-0.0132,-0.0087,-0.0048,-0.0013,0.0031,0.007,0.0094,0.0114,0.0134,0.018,0.0187,0.018,0.0234,0.0235,0.0219,0.0197,0.018,0.018,0.021,0.021,0.021,0,-0.0397,-0.0353,-0.0311,-0.0242,-0.0226,-0.0204,-0.015,-0.0118,-0.0063,-0.0036,0.0002,0.0041,0.0078,0.0095,0.0149,0.0144,0.017,0.0196,0.0198,0.0205,0.0222,0.0205,0.0181,0.0181,0.0212,0.0212,0.0212,0,-0.0445,-0.0375,-0.034,-0.0315,-0.0235,-0.0219,-0.0185,-0.013,-0.0101,-0.0053,-0.0033,0.0017,0.0045,0.0085,0.0138,0.0145,0.0188,0.0208,0.0213,0.0212,0.022,0.0218,0.02,0.0234,0.0234,0.0234,0.0234,0,-0.0464,-0.044,-0.036,-0.0338,-0.0308,-0.025,-0.0222,-0.0182,-0.0133,-0.0101,-0.0052,-0.0023,0.0045,0.0083,0.0125,0.0166,0.0177,0.0202,0.0213,0.0198,0.0195,0.0216,0.0217,0.0234,0.0234,0.0234,0.0234,0,-0.0513,-0.0459,-0.0417,-0.0343,-0.0324,-0.0305,-0.024,-0.0216,-0.0173,-0.0133,-0.012,-0.0053,-0.0004,0.0053,0.0119,0.0147,0.0185,0.02,0.0166,0.0173,0.0175,0.0175,0.017,0.0173,0.0204,0.0203,0.0203,0,-0.0529,-0.0508,-0.0432,-0.0407,-0.0374,-0.0334,-0.0304,-0.0245,-0.0214,-0.0148,-0.013,-0.0078,-0.0034,0.0042,0.0098,0.015,0.0168,0.0163,0.0176,0.0162,0.0171,0.0169,0.0173,0.0159,0.0159,0.0158,0.0158,0,-0.0561,-0.0534,-0.0492,-0.044,-0.0404,-0.036,-0.0314,-0.0296,-0.0227,-0.0194,-0.0144,-0.0109,-0.004,0.0013,0.0073,0.0111,0.0147,0.0154,0.0158,0.0143,0.0123,0.0136,0.0158,0.0153,0.0154,0.0154,0.0154,0.0154,-0.0592,-0.0571,-0.0512,-0.0466,-0.0424,-0.0381,-0.0353,-0.0306,-0.0264,-0.0203,-0.017,-0.0119,-0.006,0.0025,0.0062,0.0104,0.0116,0.0121,0.0123,0.0124,0.012,0.0116,0.0115,0.0115,0.0115,0.0115,0.0116,0,-0.0621,-0.058,-0.0538,-0.0473,-0.0436,-0.0405,-0.0351,-0.0321,-0.0278,-0.0226,-0.0182,-0.0122,-0.007,-0.0008,0.0048,0.0071,0.0089,0.0084,0.0083,0.0092,0.0105,0.0097,0.0068,0.0068,0.0068,0.0068,0.0068,0.0068,-0.0631,-0.0591,-0.0557,-0.0494,-0.0453,-0.0403,-0.0375,-0.0333,-0.0291,-0.0227,-0.0183,-0.0143,-0.0086,-0.0024,0.0027,0.0044,0.0063,0.0053,0.0075,0.0086,0.009,0.0094,0.0087,0.0057,0.0057,0.0059,0.0059,0.0059]}]]